When you browse on this site, cookies collect data to enhance your experience and personalize the content and advertising you see.
Visit our Privacy Policy to learn more. By continuing to use the site, you agree to this use of cookies and data.
  • In Romania
  • List of Countries
  • For 7 days
  • Water Temperature
  • Weather Map
  • Weather Widgets
  • user-avatar
    Login

    Hourly Weather Ghanzi

    Today, 15 September, Sunday

    Time Temperature Precipitation Wind Pressure Humidity
    00:00 +28°C° 0 mm 7 mps 716 mmHg 34%
    01:00 +27°C° 0 mm 7 mps 716 mmHg 37%
    02:00 +27°C° 0 mm 7 mps 716 mmHg 38%
    03:00 +26°C° 0 mm 6 mps 716 mmHg 38%
    04:00 +25°C° 0 mm 5 mps 716 mmHg 38%
    05:00 +26°C° 0 mm 6 mps 716 mmHg 37%
    06:00 +26°C° 0 mm 6 mps 717 mmHg 35%
    07:00 +27°C° 0 mm 7 mps 717 mmHg 33%
    08:00 +28°C° 0 mm 7 mps 717 mmHg 30%
    09:00 +30°C° 0 mm 6 mps 717 mmHg 28%
    10:00 +32°C° 0 mm 6 mps 718 mmHg 25%
    11:00 +33°C° 0 mm 5 mps 717 mmHg 23%
    12:00 +34°C° 0 mm 4 mps 716 mmHg 22%
    13:00 +35°C° 0 mm 3 mps 715 mmHg 20%
    14:00 +35°C° 0 mm 4 mps 715 mmHg 19%
    15:00 +36°C° 0 mm 4 mps 715 mmHg 17%
    16:00 +36°C° 0 mm 4 mps 714 mmHg 16%
    17:00 +35°C° 0 mm 4 mps 715 mmHg 18%
    18:00 +33°C° 0 mm 3 mps 715 mmHg 19%
    19:00 +31°C° 0 mm 3 mps 715 mmHg 21%
    20:00 +30°C° 0 mm 4 mps 715 mmHg 22%
    21:00 +29°C° 0 mm 5 mps 715 mmHg 24%
    22:00 +28°C° 0 mm 6 mps 715 mmHg 25%
    23:00 +28°C° 0 mm 6 mps 715 mmHg 28%

    Tomorrow, 16 September, Monday

    Time Temperature Precipitation Wind Pressure Humidity
    00:00 +27°C° 0 mm 6 mps 715 mmHg 30%
    01:00 +26°C° 0 mm 6 mps 715 mmHg 33%
    02:00 +26°C° 0 mm 6 mps 715 mmHg 34%
    03:00 +25°C° 0 mm 5 mps 715 mmHg 35%
    04:00 +25°C° 0 mm 5 mps 715 mmHg 37%
    05:00 +25°C° 0 mm 5 mps 715 mmHg 35%
    06:00 +26°C° 0 mm 5 mps 716 mmHg 33%
    07:00 +26°C° 0 mm 5 mps 716 mmHg 31%
    08:00 +28°C° 0 mm 5 mps 716 mmHg 27%
    09:00 +30°C° 0 mm 5 mps 717 mmHg 24%
    10:00 +33°C° 0 mm 5 mps 717 mmHg 21%
    11:00 +34°C° 0 mm 4 mps 716 mmHg 19%
    12:00 +35°C° 0 mm 4 mps 716 mmHg 17%
    13:00 +36°C° 0 mm 4 mps 715 mmHg 16%
    14:00 +36°C° 0 mm 4 mps 715 mmHg 15%
    15:00 +36°C° 0 mm 4 mps 714 mmHg 14%
    16:00 +36°C° 0 mm 4 mps 714 mmHg 14%
    17:00 +35°C° 0 mm 4 mps 714 mmHg 15%
    18:00 +33°C° 0 mm 4 mps 714 mmHg 16%
    19:00 +32°C° 0 mm 4 mps 714 mmHg 18%
    20:00 +30°C° 0 mm 4 mps 715 mmHg 19%
    21:00 +29°C° 0 mm 5 mps 715 mmHg 19%
    22:00 +29°C° 0 mm 6 mps 715 mmHg 20%
    23:00 +28°C° 0 mm 6 mps 715 mmHg 22%

    Day after tomorrow, 17 September, Tuesday

    Time Temperature Precipitation Wind Pressure Humidity
    00:00 +27°C° 0 mm 5 mps 715 mmHg 23%
    01:00 +27°C° 0 mm 5 mps 714 mmHg 25%
    02:00 +26°C° 0 mm 5 mps 715 mmHg 26%
    03:00 +25°C° 0 mm 4 mps 715 mmHg 27%
    04:00 +25°C° 0 mm 4 mps 715 mmHg 29%
    05:00 +25°C° 0 mm 4 mps 715 mmHg 28%
    06:00 +26°C° 0 mm 4 mps 715 mmHg 27%
    07:00 +26°C° 0 mm 4 mps 716 mmHg 26%
    08:00 +29°C° 0 mm 4 mps 716 mmHg 23%
    09:00 +32°C° 0 mm 4 mps 716 mmHg 20%
    10:00 +35°C° 0 mm 4 mps 716 mmHg 17%
    11:00 +36°C° 0 mm 4 mps 716 mmHg 14%
    12:00 +37°C° 0 mm 4 mps 715 mmHg 12%
    13:00 +38°C° 0 mm 4 mps 714 mmHg 10%
    14:00 +38°C° 0 mm 4 mps 714 mmHg 10%
    15:00 +38°C° 0 mm 4 mps 714 mmHg 10%
    16:00 +38°C° 0 mm 4 mps 713 mmHg 9%
    17:00 +36°C° 0 mm 4 mps 714 mmHg 10%
    18:00 +35°C° 0 mm 4 mps 714 mmHg 12%
    19:00 +33°C° 0 mm 4 mps 714 mmHg 13%
    20:00 +33°C° 0 mm 4 mps 714 mmHg 14%
    21:00 +32°C° 0 mm 4 mps 714 mmHg 15%
    22:00 +30°C° 0 mm 5 mps 715 mmHg 16%
    23:00 +29°C° 0 mm 4 mps 714 mmHg 18%

    18 September, Wednesday

    Time Temperature Precipitation Wind Pressure Humidity
    00:00 +28°C° 0 mm 4 mps 714 mmHg 19%
    01:00 +28°C° 0 mm 4 mps 714 mmHg 21%
    02:00 +27°C° 0 mm 4 mps 714 mmHg 22%
    03:00 +26°C° 0 mm 4 mps 714 mmHg 22%
    04:00 +26°C° 0 mm 4 mps 714 mmHg 23%
    05:00 +26°C° 0 mm 4 mps 715 mmHg 22%
    06:00 +27°C° 0 mm 4 mps 715 mmHg 21%
    07:00 +28°C° 0 mm 3 mps 716 mmHg 20%
    08:00 +30°C° 0 mm 3 mps 716 mmHg 18%
    09:00 +34°C° 0 mm 3 mps 716 mmHg 15%
    10:00 +36°C° 0 mm 3 mps 717 mmHg 13%
    11:00 +37°C° 0 mm 3 mps 716 mmHg 12%
    12:00 +38°C° 0 mm 2 mps 716 mmHg 11%
    13:00 +39°C° 0 mm 2 mps 715 mmHg 9%
    14:00 +39°C° 0 mm 2 mps 715 mmHg 9%
    15:00 +39°C° 0 mm 3 mps 715 mmHg 8%
    16:00 +41°C° 0 mm 4 mps 714 mmHg 8%
    17:00 +38°C° 0 mm 4 mps 714 mmHg 9%
    18:00 +36°C° 0 mm 4 mps 715 mmHg 10%
    19:00 +35°C° 0 mm 4 mps 715 mmHg 12%
    20:00 +34°C° 0 mm 5 mps 715 mmHg 12%
    21:00 +33°C° 0 mm 5 mps 715 mmHg 13%
    22:00 +32°C° 0 mm 6 mps 715 mmHg 14%
    23:00 +30°C° 0 mm 5 mps 715 mmHg 15%

    19 September, Thursday

    Time Temperature Precipitation Wind Pressure Humidity
    00:00 +30°C° 0 mm 5 mps 715 mmHg 16%
    01:00 +29°C° 0 mm 4 mps 715 mmHg 17%
    02:00 +28°C° 0 mm 4 mps 715 mmHg 18%
    03:00 +27°C° 0 mm 4 mps 715 mmHg 19%
    04:00 +26°C° 0 mm 4 mps 715 mmHg 20%
    05:00 +27°C° 0 mm 4 mps 716 mmHg 19%
    06:00 +28°C° 0 mm 4 mps 716 mmHg 18%
    07:00 +29°C° 0 mm 4 mps 716 mmHg 17%
    08:00 +32°C° 0 mm 4 mps 717 mmHg 15%
    09:00 +35°C° 0 mm 5 mps 717 mmHg 13%
    10:00 +37°C° 0 mm 5 mps 717 mmHg 11%
    11:00 +38°C° 0 mm 4 mps 717 mmHg 10%
    12:00 +40°C° 0 mm 4 mps 716 mmHg 9%
    13:00 +41°C° 0 mm 4 mps 715 mmHg 9%
    14:00 +41°C° 0 mm 4 mps 715 mmHg 8%
    15:00 +41°C° 0 mm 5 mps 715 mmHg 8%
    16:00 +40°C° 0 mm 5 mps 714 mmHg 8%
    17:00 +39°C° 0 mm 5 mps 715 mmHg 9%
    18:00 +36°C° 0 mm 5 mps 715 mmHg 11%
    19:00 +34°C° 0 mm 4 mps 715 mmHg 12%
    20:00 +33°C° 0 mm 5 mps 715 mmHg 13%
    21:00 +32°C° 0 mm 5 mps 715 mmHg 14%
    22:00 +30°C° 0 mm 5 mps 715 mmHg 15%
    23:00 +30°C° 0 mm 5 mps 715 mmHg 16%

    20 September, Friday

    Time Temperature Precipitation Wind Pressure Humidity
    00:00 +29°C° 0 mm 5 mps 715 mmHg 17%
    01:00 +28°C° 0 mm 5 mps 715 mmHg 18%
    02:00 +27°C° 0 mm 5 mps 715 mmHg 19%
    03:00 +27°C° 0 mm 5 mps 715 mmHg 20%
    04:00 +26°C° 0 mm 5 mps 715 mmHg 21%
    05:00 +27°C° 0 mm 4 mps 715 mmHg 20%
    06:00 +28°C° 0 mm 4 mps 715 mmHg 20%
    07:00 +28°C° 0 mm 3 mps 716 mmHg 19%
    08:00 +30°C° 0 mm 3 mps 716 mmHg 17%
    09:00 +34°C° 0 mm 3 mps 716 mmHg 15%
    10:00 +36°C° 0 mm 3 mps 717 mmHg 13%
    11:00 +37°C° 0 mm 3 mps 716 mmHg 12%
    12:00 +38°C° 0 mm 3 mps 716 mmHg 11%
    13:00 +40°C° 0 mm 4 mps 715 mmHg 9%
    14:00 +40°C° 0 mm 4 mps 715 mmHg 9%
    15:00 +40°C° 0 mm 4 mps 714 mmHg 9%
    16:00 +40°C° 0 mm 4 mps 714 mmHg 9%
    17:00 +37°C° 0 mm 4 mps 714 mmHg 10%
    18:00 +36°C° 0 mm 4 mps 714 mmHg 11%
    19:00 +34°C° 0 mm 4 mps 714 mmHg 12%
    20:00 +33°C° 0 mm 4 mps 714 mmHg 13%
    21:00 +32°C° 0 mm 5 mps 715 mmHg 14%
    22:00 +30°C° 0 mm 5 mps 715 mmHg 15%
    23:00 +29°C° 0 mm 5 mps 715 mmHg 15%
    Show more